User: anonymous   Login
Location: ČR
(50.0000°N, 15.0000°E)
Time: 00:50:58
(UTC+00:00)
Language:

AIST 2D - Orbit

View from above orbital plane
View from above orbital plane
View from above satellite
View from above satellite

Ground track
Ground track

The orbit data is extracted from the following two-line orbital elements,

1 41465U 16026B   21340.44182130  .00004815  00000-0  13265-3 0  9996
2 41465  97.0815 218.5120 0012201 108.7220  63.9801 15.37519325313844
Epoch (UTC): 06 December 2021 10:36:13
Eccentricity: 0.0012201
inclination: 97.0815°
perigee height: 445 km
apogee height: 462 km
right ascension of ascending node: 218.5120°
argument of perigee: 108.7220°
revolutions per day: 15.37519325
mean anomaly at epoch: 63.9801°
orbit number at epoch: 31384

The dashed part of the orbit path shows where the satellite is in the earth's shadow,  

DLR